Location: Madrid
(40.4000°N, 3.6830°W)
Time: 12:58:28
(UTC+02:00)

ISS - Pass Details

Date: 29 May 2020
Orbit: 417 x 419 km, 51.6° (Epoch: 31 May)

Event Time Altitude Azimuth Distance (km) Brightness Sun altitude
Rises 22:20:21 0° 312° (NW) 2,366 2.6 -7.7°
Reaches altitude 10° 22:22:57 10° 333° (NNW) 1,501 0.3 -8.1°
Maximum altitude 22:25:19 18° 18° (NNE) 1,120 -1.3 -8.5°
Drops below altitude 10° 22:27:41 10° 62° (ENE) 1,499 -1.2 -8.8°
Enters shadow 22:29:28 - 79° (ENE) 2,071 -0.6 -9.1°
